Time,TemperatureF,DewpointF,PressureIn,WindDirection,WindDirectionDegrees,WindSpeedMPH,WindSpeedGustMPH,Humidity,HourlyPrecipIn,Conditions,Clouds,dailyrainin,SolarRadiationWatts/m^2,SoftwareType,DateUTC
2013-09-19 00:01:00,50.0,49.0,-100.00,ESE,103,0.0,1.0,97,0.00,,,0.00,0.000000,,2013-09-19 04:01:00,
2013-09-19 00:44:00,49.0,48.0,-100.00,ENE,69,0.0,0.0,97,0.00,,,0.00,0.000000,,2013-09-19 04:44:00,
2013-09-19 00:54:00,49.0,48.0,-100.00,ENE,69,0.0,0.0,97,0.00,,,0.00,0.000000,,2013-09-19 04:54:00,
2013-09-19 01:03:00,49.0,48.0,-100.00,ENE,69,0.0,0.0,97,0.00,,,0.00,0.000000,,2013-09-19 05:03:00,
2013-09-19 01:43:00,48.0,47.0,-100.00,South,171,0.0,0.0,96,0.00,,,0.00,0.000000,,2013-09-19 05:43:00,
2013-09-19 01:52:00,48.0,47.0,-100.00,South,171,0.0,0.0,96,0.00,,,0.00,0.000000,,2013-09-19 05:52:00,
2013-09-19 02:02:00,48.0,47.0,-100.00,South,171,0.0,0.0,96,0.00,,,0.00,0.000000,,2013-09-19 06:02:00,
2013-09-19 02:43:00,48.0,46.0,-100.00,SSW,210,0.0,0.0,94,0.00,,,-99.99,0.000000,,2013-09-19 06:43:00,
2013-09-19 02:52:00,48.0,46.0,-100.00,SSW,210,0.0,0.0,94,0.00,,,-99.99,0.000000,,2013-09-19 06:52:00,
2013-09-19 03:02:00,48.0,46.0,-100.00,SSW,210,0.0,0.0,94,0.00,,,-99.99,0.000000,,2013-09-19 07:02:00,
2013-09-19 03:42:00,47.0,46.0,-100.00,East,85,0.0,0.0,97,0.00,,,0.00,0.000000,,2013-09-19 07:42:00,
2013-09-19 03:52:00,47.0,46.0,-100.00,East,85,0.0,0.0,97,0.00,,,0.00,0.000000,,2013-09-19 07:52:00,
2013-09-19 04:02:00,47.0,46.0,-100.00,East,85,0.0,0.0,97,0.00,,,0.00,0.000000,,2013-09-19 08:02:00,
2013-09-19 04:42:00,46.0,45.0,-100.00,SSE,151,0.0,0.0,97,0.00,,,0.00,0.000000,,2013-09-19 08:42:00,
2013-09-19 04:52:00,46.0,45.0,-100.00,SSE,151,0.0,0.0,97,0.00,,,0.00,0.000000,,2013-09-19 08:52:00,
2013-09-19 05:02:00,46.0,45.0,-100.00,SSE,151,0.0,0.0,97,0.00,,,0.00,0.000000,,2013-09-19 09:02:00,
2013-09-19 05:43:00,46.0,45.0,-100.00,SSW,206,0.0,0.0,98,0.00,,,0.00,0.000000,,2013-09-19 09:43:00,
2013-09-19 05:53:00,46.0,45.0,-100.00,SSW,206,0.0,0.0,98,0.00,,,0.00,0.000000,,2013-09-19 09:53:00,
2013-09-19 06:03:00,46.0,45.0,-100.00,SSW,206,0.0,0.0,98,0.00,,,0.00,0.000000,,2013-09-19 10:03:00,
2013-09-19 06:43:00,49.0,48.0,-100.00,SW,222,0.0,0.0,98,0.00,,,0.00,0.000000,,2013-09-19 10:43:00,
2013-09-19 06:52:00,49.0,48.0,-100.00,SW,222,0.0,0.0,98,0.00,,,0.00,0.000000,,2013-09-19 10:52:00,
2013-09-19 07:03:00,49.0,48.0,-100.00,SW,222,0.0,0.0,98,0.00,,,0.00,0.000000,,2013-09-19 11:03:00,
2013-09-19 07:42:00,49.0,48.0,-100.00,West,267,0.0,0.0,98,0.00,,,0.00,1.000000,,2013-09-19 11:42:00,
2013-09-19 07:53:00,49.0,48.0,-100.00,West,267,0.0,0.0,98,0.00,,,0.00,1.000000,,2013-09-19 11:53:00,
2013-09-19 08:01:00,49.0,48.0,-100.00,West,267,0.0,0.0,98,0.00,,,0.00,1.000000,,2013-09-19 12:01:00,
2013-09-19 08:43:00,50.0,49.0,-100.00,East,95,0.0,0.0,98,0.00,,,0.00,29.000000,,2013-09-19 12:43:00,
2013-09-19 08:52:00,50.0,49.0,-100.00,East,95,0.0,0.0,98,0.00,,,0.00,29.000000,,2013-09-19 12:52:00,
2013-09-19 09:02:00,50.0,49.0,-100.00,East,95,0.0,0.0,98,0.00,,,0.00,29.000000,,2013-09-19 13:02:00,
2013-09-19 09:43:00,53.0,51.0,-100.00,SSW,197,0.0,0.0,93,0.00,,,0.00,97.000000,,2013-09-19 13:43:00,
2013-09-19 09:52:00,53.0,51.0,-100.00,SSW,197,0.0,0.0,93,0.00,,,0.00,97.000000,,2013-09-19 13:52:00,
2013-09-19 10:02:00,53.0,51.0,-100.00,SSW,197,0.0,0.0,93,0.00,,,0.00,97.000000,,2013-09-19 14:02:00,
2013-09-19 10:42:00,58.0,54.0,-100.00,SSW,213,1.0,3.0,86,0.00,,,0.00,214.000000,,2013-09-19 14:42:00,
2013-09-19 10:52:00,58.0,54.0,-100.00,SSW,213,1.0,3.0,86,0.00,,,0.00,214.000000,,2013-09-19 14:52:00,
2013-09-19 11:02:00,58.0,54.0,-100.00,SSW,213,1.0,3.0,86,0.00,,,0.00,214.000000,,2013-09-19 15:02:00,
2013-09-19 11:43:00,63.0,57.0,-100.00,SSW,193,3.0,6.0,82,0.00,,,0.00,250.000000,,2013-09-19 15:43:00,
2013-09-19 11:54:00,63.0,57.0,-100.00,SSW,193,3.0,6.0,82,0.00,,,0.00,250.000000,,2013-09-19 15:54:00,
2013-09-19 12:04:00,63.0,57.0,-100.00,SSW,193,3.0,6.0,82,0.00,,,0.00,250.000000,,2013-09-19 16:04:00,
2013-09-19 12:43:00,65.0,58.0,-100.00,South,173,4.0,11.0,77,0.00,,,0.00,352.000000,,2013-09-19 16:43:00,
2013-09-19 12:53:00,65.0,58.0,-100.00,South,173,4.0,11.0,77,0.00,,,0.00,352.000000,,2013-09-19 16:53:00,
2013-09-19 13:03:00,65.0,58.0,-100.00,South,173,4.0,11.0,77,0.00,,,0.00,352.000000,,2013-09-19 17:03:00,
2013-09-19 13:42:00,69.0,58.0,-100.00,SE,139,4.0,8.0,68,0.00,,,0.00,516.000000,,2013-09-19 17:42:00,
2013-09-19 13:53:00,69.0,58.0,-100.00,SE,139,4.0,8.0,68,0.00,,,0.00,516.000000,,2013-09-19 17:53:00,
2013-09-19 14:02:00,69.0,58.0,-100.00,SE,139,4.0,8.0,68,0.00,,,0.00,516.000000,,2013-09-19 18:02:00,
2013-09-19 14:42:00,73.0,59.0,-100.00,SSW,193,4.0,8.0,61,0.00,,,0.00,727.000000,,2013-09-19 18:42:00,
2013-09-19 14:52:00,73.0,59.0,-100.00,SSW,193,4.0,8.0,61,0.00,,,0.00,727.000000,,2013-09-19 18:52:00,
2013-09-19 15:02:00,73.0,59.0,-100.00,SSW,193,4.0,8.0,61,0.00,,,0.00,727.000000,,2013-09-19 19:02:00,
2013-09-19 15:42:00,77.0,60.0,-100.00,SSW,197,3.0,9.0,55,0.00,,,0.00,802.000000,,2013-09-19 19:42:00,
2013-09-19 15:52:00,77.0,60.0,-100.00,SSW,197,3.0,9.0,55,0.00,,,0.00,802.000000,,2013-09-19 19:52:00,
2013-09-19 16:02:00,77.0,60.0,-100.00,SSW,197,3.0,9.0,55,0.00,,,0.00,802.000000,,2013-09-19 20:02:00,
2013-09-19 16:42:00,77.0,57.0,-100.00,SSW,205,3.0,10.0,51,0.00,,,0.00,700.000000,,2013-09-19 20:42:00,
2013-09-19 16:52:00,77.0,57.0,-100.00,SSW,205,3.0,10.0,51,0.00,,,0.00,700.000000,,2013-09-19 20:52:00,
2013-09-19 17:02:00,77.0,57.0,-100.00,SSW,205,3.0,10.0,51,0.00,,,0.00,700.000000,,2013-09-19 21:02:00,
2013-09-19 17:44:00,78.0,57.0,-100.00,South,179,2.0,7.0,48,0.00,,,0.00,510.000000,,2013-09-19 21:44:00,
2013-09-19 17:55:00,78.0,57.0,-100.00,South,179,2.0,7.0,48,0.00,,,0.00,510.000000,,2013-09-19 21:55:00,
2013-09-19 18:04:00,78.0,57.0,-100.00,South,179,2.0,7.0,48,0.00,,,0.00,510.000000,,2013-09-19 22:04:00,
2013-09-19 18:42:00,76.0,57.0,-100.00,South,186,3.0,5.0,51,0.00,,,0.00,316.000000,,2013-09-19 22:42:00,
2013-09-19 18:53:00,76.0,57.0,-100.00,South,186,3.0,5.0,51,0.00,,,0.00,316.000000,,2013-09-19 22:53:00,
2013-09-19 19:04:00,76.0,57.0,-100.00,South,186,3.0,5.0,51,0.00,,,0.00,316.000000,,2013-09-19 23:04:00,
2013-09-19 19:43:00,65.0,59.0,-100.00,West,263,0.0,5.0,82,0.00,,,0.00,47.000000,,2013-09-19 23:43:00,
2013-09-19 19:53:00,65.0,59.0,-100.00,West,263,0.0,5.0,82,0.00,,,0.00,47.000000,,2013-09-19 23:53:00,
2013-09-19 20:02:00,65.0,59.0,-100.00,West,263,0.0,5.0,82,0.00,,,0.00,47.000000,,2013-09-20 00:02:00,
2013-09-19 20:42:00,61.0,57.0,-100.00,NE,41,0.0,3.0,88,0.00,,,0.00,2.000000,,2013-09-20 00:42:00,
2013-09-19 20:52:00,61.0,57.0,-100.00,NE,41,0.0,3.0,88,0.00,,,0.00,2.000000,,2013-09-20 00:52:00,
2013-09-19 21:02:00,61.0,57.0,-100.00,NE,41,0.0,3.0,88,0.00,,,0.00,2.000000,,2013-09-20 01:02:00,
2013-09-19 21:42:00,57.0,56.0,-100.00,WSW,245,0.0,0.0,96,0.00,,,0.00,0.000000,,2013-09-20 01:42:00,
2013-09-19 21:52:00,57.0,56.0,-100.00,WSW,245,0.0,0.0,96,0.00,,,0.00,0.000000,,2013-09-20 01:52:00,
2013-09-19 22:03:00,57.0,56.0,-100.00,WSW,245,0.0,0.0,96,0.00,,,0.00,0.000000,,2013-09-20 02:03:00,
2013-09-19 22:43:00,56.0,55.0,-100.00,NNE,21,2.0,3.0,96,0.00,,,0.00,0.000000,,2013-09-20 02:43:00,
2013-09-19 22:53:00,56.0,55.0,-100.00,NNE,21,2.0,3.0,96,0.00,,,0.00,0.000000,,2013-09-20 02:53:00,
2013-09-19 23:02:00,56.0,55.0,-100.00,NNE,21,2.0,3.0,96,0.00,,,0.00,0.000000,,2013-09-20 03:02:00,
2013-09-19 23:45:00,55.0,54.0,-100.00,SW,220,0.0,0.0,96,0.00,,,0.00,0.000000,,2013-09-20 03:45:00,
2013-09-19 23:56:00,55.0,54.0,-100.00,SW,220,0.0,0.0,96,0.00,,,0.00,0.000000,,2013-09-20 03:56:00,